Location: Crescent
(42.8242°N, 73.7329°W)
Time: 09:12:58
(UTC+00:00)

Transit 2A - Pass Details

Date: 10 November 2024
Orbit: 592 x 956 km, 66.7° (Epoch: 09 December)

Event Time Altitude Azimuth Distance (km) Brightness Sun altitude
Rises 08:41:03 0° 174° (S) 3,560 9.4 -33.1°
Reaches altitude 10° 08:43:54 10° 163° (SSE) 2,650 8.9 -32.6°
Maximum altitude 08:49:02 27° 107° (ESE) 1,732 8.3 -31.7°
Drops below altitude 10° 08:54:13 10° 52° (NE) 2,682 9.4 -30.7°
Sets 08:57:06 0° 41° (NE) 3,611 10.1 -30.2°
